CW9120 Kitimat BC CA current weather conditions

sailwx.info

Wind from 185

Air temperature 13.3° C
Dewpoint 9.4° C

Last reported at 2020-Aug-12 06:01 UTC.
Time now 2020-Aug-12 06:36 UTC

Location: N 54°03' W 128°40'.
View on Google Maps.

See reports from other nearby stations

  
Tides and Currents Weather Stations Pressure Air Temp Water Temp Dewpoint Dewpoint Depression Visibility Wind Speed Wind Dir Waves Ship Positions
date/time (UTC)wind fromknots sea level pressurealtimeterstation pressurevisibilityair tempwater tempwave heightnotes
2020-Aug-12 06:01 185 13.3
2020-Aug-12 05:46 192 13.9
2020-Aug-12 05:32 187 13.9
2020-Aug-12 05:16 159 0 gusting 6 13.9
2020-Aug-12 05:02 187 14.4
2020-Aug-12 04:46 182 14.4
2020-Aug-12 04:31 227 0 gusting 4 15.0
2020-Aug-12 04:17 163 0 gusting 5 15.0
2020-Aug-12 04:01 200 0 gusting 5 15.0
2020-Aug-12 03:46 155 0 gusting 6 15.0
2020-Aug-12 03:31 136 15.0
2020-Aug-12 03:16 182 0 gusting 6 15.6
2020-Aug-12 03:01 084 1 gusting 9 15.6
2020-Aug-12 02:46 161 1 gusting 7 15.6
2020-Aug-12 02:31 173 0 gusting 6 15.6
2020-Aug-12 02:16 144 1 gusting 7 16.1
2020-Aug-12 02:01 081 0 gusting 9 16.7
2020-Aug-12 01:45 161 2 gusting 10 16.7
2020-Aug-12 01:31 193 3 gusting 11 16.7
2020-Aug-12 01:16 115 1 gusting 12 16.7
2020-Aug-12 01:01 300 2 gusting 8 16.7
2020-Aug-12 00:46 107 3 gusting 9 17.8
2020-Aug-12 00:31 130 4 gusting 10 17.8
2020-Aug-12 00:15 194 1 gusting 8 17.8
2020-Aug-12 00:00 145 3 gusting 8 17.8
2020-Aug-11 23:45 153 3 gusting 10 17.8
2020-Aug-11 23:30 209 3 gusting 13 17.8
2020-Aug-11 23:16 169 2 gusting 9 17.2
2020-Aug-11 23:01 166 2 gusting 7 17.2
2020-Aug-11 22:46 116 1 gusting 9 16.7
2020-Aug-11 22:30 046 1 gusting 8 17.2
2020-Aug-11 22:16 137 3 gusting 8 17.2
2020-Aug-11 21:45 176 2 gusting 6 17.2
2020-Aug-11 21:30 158 2 gusting 6 16.1
2020-Aug-11 21:15 191 1 gusting 6 16.1
2020-Aug-11 21:00 159 1 gusting 6 15.6
2020-Aug-11 20:45 176 1 gusting 6 16.1
2020-Aug-11 20:30 114 0 gusting 6 16.7
2020-Aug-11 20:15 138 16.7
2020-Aug-11 20:00 121 15.6
2020-Aug-11 19:45 169 15.6
2020-Aug-11 19:30 232 15.0
2020-Aug-11 19:15 169 15.0
2020-Aug-11 19:00 187 14.4
2020-Aug-11 18:45 157 14.4
2020-Aug-11 18:30 202 14.4
2020-Aug-11 18:17 199 14.4
2020-Aug-11 18:03 198 13.9
2020-Aug-11 17:47 207 13.9
2020-Aug-11 17:33 168 14.4
2020-Aug-11 17:16 159 0 gusting 4 13.9
2020-Aug-11 17:01 019 13.3
2020-Aug-11 16:47 014 12.8
2020-Aug-11 16:31 014 11.7
2020-Aug-11 16:16 014 11.1
2020-Aug-11 16:01 014 11.1
2020-Aug-11 15:46 014 10.6
2020-Aug-11 15:30 014 10.0
2020-Aug-11 15:15 014 10.0
2020-Aug-11 15:00 014 10.0
2020-Aug-11 14:45 014 9.4
2020-Aug-11 14:30 014 9.4
2020-Aug-11 14:16 014 8.9
2020-Aug-11 14:00 014 8.9
2020-Aug-11 13:45 014 8.9
2020-Aug-11 13:30 014 8.9
2020-Aug-11 13:15 014 8.9
2020-Aug-11 13:00 014 8.9
2020-Aug-11 12:45 014 8.9
2020-Aug-11 12:30 014 8.9
2020-Aug-11 12:15 014 8.9
2020-Aug-11 12:00 014 8.9
2020-Aug-11 11:45 014 8.9
2020-Aug-11 11:30 014 8.9
2020-Aug-11 11:15 014 8.9
2020-Aug-11 11:00 014 8.9
2020-Aug-11 10:45 014 8.9
2020-Aug-11 10:30 014 9.4
2020-Aug-11 10:15 014 9.4
2020-Aug-11 09:47 014 9.4
2020-Aug-11 09:17 014 9.4
2020-Aug-11 09:02 014 9.4
2020-Aug-11 08:46 014 9.4
2020-Aug-11 08:16 014 10.0
2020-Aug-11 08:01 014 10.0
2020-Aug-11 07:45 014 10.6
2020-Aug-11 07:15 014 11.1
2020-Aug-11 07:01 014 11.1
2020-Aug-11 06:46 014 11.1
2020-Aug-11 06:15 014 11.1
2020-Aug-11 06:01 017 11.1
2020-Aug-11 05:46 027 11.1
2020-Aug-11 05:16 143 11.7
2020-Aug-11 05:00 145 12.2
2020-Aug-11 04:46 145 13.3
2020-Aug-11 04:15 139 13.9
2020-Aug-11 04:00 183 14.4
2020-Aug-11 03:46 175 15.0
2020-Aug-11 03:15 160 15.6
2020-Aug-11 03:00 163 15.6
2020-Aug-11 02:45 121 0 gusting 5 16.1
2020-Aug-11 02:15 176 16.1
2020-Aug-11 02:00 139 0 gusting 4 16.1
2020-Aug-11 01:45 101 16.1
2020-Aug-11 01:16 161 16.7
2020-Aug-11 01:00 184 1 gusting 7 16.7
2020-Aug-11 00:45 172 1 gusting 7 16.7
2020-Aug-11 00:15 169 17.2
2020-Aug-11 00:00 093 2 gusting 8 16.7
2020-Aug-10 23:45 109 0 gusting 8 16.7
2020-Aug-10 23:16 140 16.7
2020-Aug-10 23:01 199 1 gusting 7 16.7
2020-Aug-10 22:47 166 2 gusting 9 16.7
2020-Aug-10 22:17 169 1 gusting 9 17.2
2020-Aug-10 22:01 089 0 gusting 11 17.8
2020-Aug-10 21:47 179 3 gusting 8 18.3
2020-Aug-10 21:16 163 1 gusting 8 18.9
2020-Aug-10 21:01 050 1 gusting 8 17.8
2020-Aug-10 20:45 165 0 gusting 8 16.7
2020-Aug-10 20:31 213 16.7
2020-Aug-10 20:15 166 16.7
2020-Aug-10 19:45 168 17.2
2020-Aug-10 19:30 159 0 gusting 6 17.2
2020-Aug-10 19:16 186 0 gusting 6 16.7
2020-Aug-10 18:45 189 1 gusting 11 17.2
2020-Aug-10 18:30 155 3 gusting 8 17.2
2020-Aug-10 18:15 196 1 gusting 11 17.2
2020-Aug-10 17:45 122 1 gusting 8 16.1
2020-Aug-10 17:30 104 0 gusting 10 16.1
2020-Aug-10 17:15 159 1 gusting 7 15.6
2020-Aug-10 16:45 134 0 gusting 6 15.0
2020-Aug-10 16:30 097 0 gusting 7 14.4
2020-Aug-10 16:15 335 13.9
2020-Aug-10 15:45 171 0 gusting 7 15.0
2020-Aug-10 15:30 215 1 gusting 7 14.4
2020-Aug-10 15:15 125 0 gusting 3 13.9
2020-Aug-10 14:45 265 1 gusting 8 13.9
2020-Aug-10 14:30 122 0 gusting 6 13.3
2020-Aug-10 14:15 190 0 gusting 7 13.3
2020-Aug-10 13:46 132 13.3
2020-Aug-10 13:32 161 1 gusting 6 13.3
2020-Aug-10 13:16 153 13.3
2020-Aug-10 12:47 088 13.3
2020-Aug-10 12:31 175 13.3
2020-Aug-10 12:16 094 1 gusting 6 13.3
2020-Aug-10 11:46 179 13.3
2020-Aug-10 11:31 171 13.3
2020-Aug-10 11:16 154 13.3
2020-Aug-10 10:46 109 0 gusting 7 13.3
2020-Aug-10 10:31 180 13.3
2020-Aug-10 10:16 088 13.3
2020-Aug-10 09:46 075 1 gusting 6 13.9
2020-Aug-10 09:30 159 13.9
2020-Aug-10 09:16 165 13.9
2020-Aug-10 08:45 180 13.9
2020-Aug-10 08:31 132 1 gusting 10 13.9
2020-Aug-10 08:16 132 13.9
2020-Aug-10 07:45 227 13.9
2020-Aug-10 07:30 161 1 gusting 9 13.9
2020-Aug-10 07:16 144 1 gusting 9 13.9
2020-Aug-10 06:46 152 2 gusting 8 13.9
2020-Aug-10 06:31 091 0 gusting 7 13.9